Meteo pe oră la Czyzykow

Astăzi, 11 Aprilie, Duminică

Timp Temperatura Precipitaţii Vânt Presiune Umiditate
00:00 +9°C° 0 mm 1 m/s 743 mmHg 85%
01:00 +8°C° 0 mm 2 m/s 743 mmHg 85%
02:00 +8°C° 0 mm 2 m/s 743 mmHg 84%
03:00 +8°C° 0 mm 2 m/s 743 mmHg 84%
04:00 +7°C° 0 mm 3 m/s 743 mmHg 83%
05:00 +8°C° 0 mm 3 m/s 743 mmHg 80%
06:00 +9°C° 0 mm 3 m/s 743 mmHg 76%
07:00 +10°C° 0 mm 3 m/s 743 mmHg 73%
08:00 +11°C° 0 mm 4 m/s 742 mmHg 66%
09:00 +13°C° 0 mm 5 m/s 742 mmHg 60%
10:00 +14°C° 0 mm 5 m/s 742 mmHg 53%
11:00 +15°C° 0 mm 5 m/s 742 mmHg 49%
12:00 +16°C° 0 mm 6 m/s 742 mmHg 46%
13:00 +17°C° 0 mm 6 m/s 742 mmHg 42%
14:00 +16°C° 0 mm 6 m/s 742 mmHg 45%
15:00 +16°C° 0 mm 5 m/s 742 mmHg 48%
16:00 +15°C° 0 mm 5 m/s 742 mmHg 51%
17:00 +14°C° 0 mm 5 m/s 742 mmHg 55%
18:00 +13°C° 0 mm 5 m/s 742 mmHg 59%
19:00 +11°C° 0 mm 6 m/s 743 mmHg 64%
20:00 +10°C° 0.1 mm 5 m/s 742 mmHg 68%
21:00 +10°C° 0.1 mm 5 m/s 742 mmHg 73%
22:00 +10°C° 0.1 mm 5 m/s 742 mmHg 78%
23:00 +9°C° 0 mm 5 m/s 742 mmHg 79%

Mâine, 12 Aprilie, Luni

Timp Temperatura Precipitaţii Vânt Presiune Umiditate
00:00 +9°C° 0 mm 5 m/s 742 mmHg 80%
01:00 +9°C° 0 mm 5 m/s 742 mmHg 81%
02:00 +10°C° 0 mm 4 m/s 741 mmHg 82%
03:00 +10°C° 0 mm 4 m/s 741 mmHg 82%
04:00 +9°C° 0 mm 3 m/s 741 mmHg 82%
05:00 +10°C° 0 mm 3 m/s 741 mmHg 81%
06:00 +10°C° 0 mm 3 m/s 741 mmHg 80%
07:00 +10°C° 0 mm 3 m/s 741 mmHg 79%
08:00 +11°C° 0 mm 3 m/s 741 mmHg 73%
09:00 +13°C° 0 mm 3 m/s 741 mmHg 67%
10:00 +14°C° 0 mm 3 m/s 741 mmHg 60%
11:00 +14°C° 0 mm 3 m/s 742 mmHg 61%
12:00 +15°C° 0 mm 2 m/s 742 mmHg 61%
13:00 +15°C° 0 mm 2 m/s 742 mmHg 62%
14:00 +13°C° 0.1 mm 3 m/s 742 mmHg 67%
15:00 +12°C° 0.1 mm 4 m/s 742 mmHg 71%
16:00 +11°C° 0.1 mm 4 m/s 742 mmHg 76%
17:00 +9°C° 0 mm 5 m/s 742 mmHg 79%
18:00 +7°C° 0 mm 5 m/s 743 mmHg 82%
19:00 +5°C° 0 mm 6 m/s 744 mmHg 85%
20:00 +4°C° 0.1 mm 6 m/s 744 mmHg 85%
21:00 +3°C° 0.1 mm 6 m/s 744 mmHg 85%
22:00 +2°C° 0.1 mm 6 m/s 745 mmHg 84%
23:00 +2°C° 0 mm 6 m/s 745 mmHg 86%

Poimâine, 13 Aprilie, Marţi

Timp Temperatura Precipitaţii Vânt Presiune Umiditate
00:00 +1°C° 0 mm 6 m/s 745 mmHg 89%
01:00 +1°C° 0 mm 6 m/s 745 mmHg 91%
02:00 -1°C° 0.1 mm 6 m/s 745 mmHg 92%
03:00 -1°C° 0.1 mm 6 m/s 745 mmHg 94%
04:00 0°C° 0.1 mm 5 m/s 745 mmHg 95%
05:00 0°C° 0.6 mm 5 m/s 746 mmHg 95%
06:00 0°C° 0.6 mm 5 m/s 746 mmHg 95%
07:00 0°C° 0.6 mm 5 m/s 746 mmHg 95%
08:00 0°C° 0.9 mm 5 m/s 746 mmHg 95%
09:00 0°C° 0.9 mm 5 m/s 747 mmHg 94%
10:00 -1°C° 0.9 mm 6 m/s 747 mmHg 93%
11:00 -1°C° 0.3 mm 6 m/s 747 mmHg 89%
12:00 +1°C° 0.3 mm 6 m/s 747 mmHg 86%
13:00 +1°C° 0.3 mm 6 m/s 747 mmHg 82%
14:00 +2°C° 0.1 mm 6 m/s 747 mmHg 79%
15:00 +2°C° 0.1 mm 5 m/s 747 mmHg 76%
16:00 +3°C° 0.1 mm 5 m/s 747 mmHg 73%
17:00 +3°C° 0 mm 4 m/s 747 mmHg 75%
18:00 +3°C° 0 mm 3 m/s 747 mmHg 78%
19:00 +2°C° 0 mm 3 m/s 747 mmHg 81%
20:00 +2°C° 0 mm 3 m/s 747 mmHg 81%
21:00 +1°C° 0 mm 3 m/s 747 mmHg 82%
22:00 +1°C° 0 mm 3 m/s 746 mmHg 83%
23:00 +1°C° 0 mm 3 m/s 746 mmHg 80%

14 Aprilie, Miercuri

Timp Temperatura Precipitaţii Vânt Presiune Umiditate
00:00 0°C° 0 mm 4 m/s 746 mmHg 78%
01:00 0°C° 0 mm 4 m/s 746 mmHg 75%
02:00 -1°C° 0 mm 4 m/s 746 mmHg 79%
03:00 -1°C° 0 mm 5 m/s 746 mmHg 82%
04:00 -1°C° 0 mm 5 m/s 746 mmHg 86%
05:00 -1°C° 0.1 mm 5 m/s 746 mmHg 86%
06:00 -1°C° 0.1 mm 5 m/s 746 mmHg 87%
07:00 -2°C° 0.1 mm 6 m/s 746 mmHg 88%
08:00 -1°C° 0.2 mm 6 m/s 746 mmHg 85%
09:00 -1°C° 0.2 mm 7 m/s 745 mmHg 83%
10:00 0°C° 0.2 mm 8 m/s 745 mmHg 80%
11:00 0°C° 0.5 mm 8 m/s 745 mmHg 83%
12:00 0°C° 0.5 mm 8 m/s 745 mmHg 87%
13:00 0°C° 0.5 mm 8 m/s 744 mmHg 90%
14:00 -1°C° 1.3 mm 8 m/s 744 mmHg 92%
15:00 -1°C° 1.3 mm 8 m/s 744 mmHg 95%
16:00 -2°C° 1.3 mm 8 m/s 744 mmHg 97%
17:00 -2°C° 1.3 mm 8 m/s 744 mmHg 97%
18:00 -2°C° 1.3 mm 8 m/s 743 mmHg 97%
19:00 -2°C° 1.3 mm 8 m/s 743 mmHg 97%
20:00 -4°C° 1.6 mm 8 m/s 743 mmHg 98%
21:00 -4°C° 1.6 mm 8 m/s 743 mmHg 98%
22:00 -4°C° 1.6 mm 8 m/s 743 mmHg 98%
23:00 -4°C° 1.3 mm 8 m/s 742 mmHg 98%

15 Aprilie, Joi

Timp Temperatura Precipitaţii Vânt Presiune Umiditate
00:00 -3°C° 1.3 mm 7 m/s 742 mmHg 98%
01:00 -3°C° 1.3 mm 7 m/s 742 mmHg 98%
02:00 -3°C° 1.2 mm 7 m/s 742 mmHg 99%
03:00 -3°C° 1.2 mm 6 m/s 742 mmHg 99%
04:00 -3°C° 1.2 mm 6 m/s 742 mmHg 99%
05:00 -3°C° 0.7 mm 6 m/s 742 mmHg 99%
06:00 -2°C° 0.7 mm 6 m/s 742 mmHg 99%
07:00 -1°C° 0.7 mm 5 m/s 742 mmHg 99%
08:00 -1°C° 0.5 mm 5 m/s 743 mmHg 99%
09:00 -1°C° 0.5 mm 5 m/s 743 mmHg 99%
10:00 -1°C° 0.5 mm 5 m/s 743 mmHg 99%
11:00 0°C° 0.4 mm 5 m/s 743 mmHg 99%
12:00 0°C° 0.4 mm 5 m/s 744 mmHg 99%
13:00 0°C° 0.4 mm 5 m/s 744 mmHg 99%
14:00 0°C° 0.5 mm 5 m/s 744 mmHg 99%
15:00 +1°C° 0.5 mm 5 m/s 744 mmHg 99%
16:00 +1°C° 0.5 mm 5 m/s 745 mmHg 99%
17:00 +1°C° 0.5 mm 5 m/s 745 mmHg 99%
18:00 +2°C° 0.5 mm 6 m/s 745 mmHg 98%
19:00 +2°C° 0.5 mm 6 m/s 746 mmHg 98%
20:00 +2°C° 0.5 mm 6 m/s 746 mmHg 97%
21:00 +2°C° 0.5 mm 6 m/s 747 mmHg 97%
22:00 +2°C° 0.5 mm 6 m/s 747 mmHg 96%
23:00 +2°C° 0.1 mm 6 m/s 747 mmHg 94%

16 Aprilie, Vineri

Timp Temperatura Precipitaţii Vânt Presiune Umiditate
00:00 +2°C° 0.1 mm 5 m/s 748 mmHg 92%
01:00 +1°C° 0.1 mm 5 m/s 748 mmHg 91%
02:00 +1°C° 0 mm 5 m/s 748 mmHg 90%
03:00 0°C° 0 mm 5 m/s 749 mmHg 90%
04:00 0°C° 0 mm 5 m/s 749 mmHg 89%
05:00 0°C° 0 mm 5 m/s 749 mmHg 87%
06:00 0°C° 0 mm 5 m/s 750 mmHg 85%
07:00 +1°C° 0 mm 5 m/s 750 mmHg 83%
08:00 +2°C° 0 mm 6 m/s 751 mmHg 76%
09:00 +4°C° 0 mm 6 m/s 751 mmHg 69%
10:00 +7°C° 0 mm 6 m/s 751 mmHg 63%
11:00 +7°C° 0 mm 6 m/s 751 mmHg 59%
12:00 +8°C° 0 mm 6 m/s 752 mmHg 56%
13:00 +9°C° 0 mm 6 m/s 752 mmHg 52%
14:00 +9°C° 0 mm 6 m/s 752 mmHg 52%
15:00 +9°C° 0 mm 6 m/s 752 mmHg 52%
16:00 +9°C° 0 mm 5 m/s 752 mmHg 52%
17:00 +8°C° 0 mm 5 m/s 752 mmHg 58%
18:00 +6°C° 0 mm 4 m/s 752 mmHg 63%
19:00 +4°C° 0 mm 3 m/s 753 mmHg 68%
20:00 +4°C° 0 mm 3 m/s 753 mmHg 69%
21:00 +3°C° 0 mm 3 m/s 753 mmHg 71%
22:00 +2°C° 0 mm 3 m/s 753 mmHg 72%
23:00 +2°C° 0 mm 3 m/s 753 mmHg 73%
Arată mai mult

Formular de consimțământ

Meteoprog și furnizorii noștri de servicii pot stoca și accesa date personale, precum cookies, identificatori de dispozitiv sau alte tehnologii similare pe dispozitivul dumneavoastră și procesa astfel de date pentru a personaliza conținutul și reclamele, dar și pentru a oferi caracteristici de social media și pentru a analiza traficul.

  • Stocarea și/sau accesarea informațiilor pe dispozitivul dumneavoastră

    Cookies, identificatori de dispozitiv sau alte informații pot fi stocate sau accesate pe dispozitiv în scopurile indicate mai sus.

  • Reclame și conținut personalizat, evaluarea reclamelor și a conținutului, informații despre audiențe și dezvoltarea produselor

    Reclamele și conținutul pot fi personalizate pe baza unui profil. Pot fi adăugate date suplimentare pentru a personaliza mai bine reclamele și conținutul. Performanța reclamelor și conținutului poate fi măsurată. Pot fi obținute informații despre utilizatorii care au văzut reclamele și conținutul. Aceste date pot fi utilizate pentru a dezvolta sau îmbunătăți experiența utilizatorilor, sistemele și software-ul.

Dând clic pe ‘Sunt de acord’, permiteți utilizarea cookie-urilor menționate, a identificatorilor de dispozitiv, balizelor web sau altor tehnologii similare. Setările pot fi modificate din browser-ul dispozitivului dumneavoastră.

În anumite scopuri, interesele legitime pot prima asupra consimțământului. Puteți citi mai multe informații în acest sens în Politica privind Confidențialitatea Datelor și Cookie.